Change the Weather History Date:

Friday, October 22, 2010

  Actual Average Record
Temperature  
Mean Temperature 70 °F -  
Max Temperature 84 °F 83 °F 92 °F (1950)
Min Temperature 57 °F 63 °F 48 °F (1989)
Cooling Degree Days 6    
Growing Degree Days 20 (Base 50)    
Moisture  
Dew Point 56 °F    
Average Humidity 66    
Maximum Humidity 94    
Minimum Humidity 33    
Precipitation  
Precipitation 0.00 in - - ()
Sea Level Pressure  
Sea Level Pressure 30.04 in    
Wind  
Wind Speed 2 mph (NE)    
Max Wind Speed 8 mph    
Max Gust Speed -    
Visibility 10 miles    
Events      
Averages and records for this station are not official NWS values.
T = Trace of Precipitation, MM = Missing Value Source: NWS Daily Summary

Daily Weather History Graph

Daily Weather History Graph

Search for Another Location

Airport or City:

Trip Planner

Search our weather history database for the weather conditions in past years. The results will help you decide how hot, cold, wet, or windy it might be!

Date:

Astronomy

Oct. 22, 2010 Rise Set
Actual Time 7:31 AM EDT 6:51 PM EDT
Civil Twilight 7:07 AM EDT 7:14 PM EDT
Nautical Twilight 6:40 AM EDT 7:42 PM EDT
Astronomical Twilight 6:13 AM EDT 8:09 PM EDT
Moon 6:26 PM EDT (10/22) 7:05 AM EDT (10/22)
Length of Visible Light 12h 07m
Length of Day
11h 19m
Full, 100% of the Moon is Illuminated
Oct 22
Full
Oct 22
Full
Oct 30
Last Quarter
Nov 6
New
Nov 13
First Quarter

Hourly Weather History & Observations

Time (EDT) Temp. Heat Index Dew Point Humidity Pressure Visibility Wind Dir Wind Speed Gust Speed Precip Events Conditions
12:15 AM 68.0 °F - 57.2 °F 68% 30.03 in 10.0 mi NNW 3.5 mph - N/A   Partly Cloudy
12:35 AM 66.2 °F - 57.2 °F 73% 30.03 in 10.0 mi Calm Calm - N/A   Partly Cloudy
12:55 AM 66.2 °F - 57.2 °F 73% 30.02 in 10.0 mi Calm Calm - N/A   Partly Cloudy
1:15 AM 66.2 °F - 57.2 °F 73% 30.01 in 10.0 mi Calm Calm - N/A   Partly Cloudy
1:35 AM 60.8 °F - 57.2 °F 88% 30.02 in 10.0 mi Calm Calm - N/A   Partly Cloudy
1:55 AM 62.6 °F - 59.0 °F 88% 30.01 in 10.0 mi Calm Calm - N/A   Partly Cloudy
2:15 AM 66.2 °F - 59.0 °F 78% 30.01 in 10.0 mi Calm Calm - N/A   Partly Cloudy
2:35 AM 64.4 °F - 57.2 °F 77% 30.01 in 10.0 mi Calm Calm - N/A   Partly Cloudy
3:15 AM 64.4 °F - 57.2 °F 77% 30.00 in 10.0 mi Calm Calm - N/A   Partly Cloudy
3:35 AM 62.6 °F - 57.2 °F 82% 30.00 in 10.0 mi NW 3.5 mph - N/A   Clear
3:55 AM 60.8 °F - 57.2 °F 88% 30.00 in 10.0 mi Calm Calm - N/A   Partly Cloudy
4:15 AM 60.8 °F - 57.2 °F 88% 30.00 in 10.0 mi Calm Calm - N/A   Clear
4:35 AM 62.6 °F - 57.2 °F 82% 30.00 in 10.0 mi Calm Calm - N/A   Clear
4:55 AM 62.6 °F - 57.2 °F 82% 30.00 in 10.0 mi Calm Calm - N/A   Clear
5:15 AM 60.8 °F - 57.2 °F 88% 30.00 in 10.0 mi Calm Calm - N/A   Clear
5:35 AM 60.8 °F - 57.2 °F 88% 30.01 in 10.0 mi Calm Calm - N/A   Clear
5:55 AM 59.0 °F - 55.4 °F 88% 30.01 in 10.0 mi Calm Calm - N/A   Clear
6:15 AM 57.2 °F - 55.4 °F 94% 30.02 in 10.0 mi Calm Calm - N/A   Clear
6:35 AM 57.2 °F - 55.4 °F 94% 30.03 in 10.0 mi Calm Calm - N/A   Clear
7:15 AM 60.8 °F - 57.2 °F 88% 30.04 in 10.0 mi Calm Calm - N/A   Clear
7:30 AM 57.2 °F - 55.4 °F 94% 30.04 in 8.0 mi Calm Calm - N/A   Clear
7:35 AM 59.0 °F - 57.2 °F 94% 30.05 in 10.0 mi Calm Calm - N/A   Clear
7:54 AM 60.8 °F - 57.2 °F 88% 30.05 in 10.0 mi Calm Calm - N/A   Clear
7:55 AM 60.8 °F - 57.2 °F 88% 30.05 in 10.0 mi Calm Calm - N/A   Clear
8:15 AM 60.8 °F - 57.2 °F 88% 30.06 in 10.0 mi Calm Calm - N/A   Clear
8:35 AM 62.6 °F - 57.2 °F 82% 30.07 in 10.0 mi Calm Calm - N/A   Clear
8:51 AM 62.6 °F - 60.8 °F 94% 30.07 in 10.0 mi Calm Calm - N/A   Clear
9:53 AM 73.4 °F - 62.6 °F 69% 30.09 in 10.0 mi NE 3.5 mph - N/A   Clear
10:51 AM 78.8 °F - 60.8 °F 54% 30.10 in 10.0 mi ENE 3.5 mph - N/A   Clear
11:50 AM 80.6 °F 80.8 °F 57.2 °F 45% 30.09 in 12.0 mi ENE 4.6 mph - N/A   Scattered Clouds
12:52 PM 82.4 °F 81.4 °F 53.6 °F 37% 30.08 in 12.0 mi NE 4.6 mph - N/A   Scattered Clouds
1:50 PM 84.2 °F 82.8 °F 53.6 °F 35% 30.07 in 12.0 mi Variable 4.6 mph - N/A   Scattered Clouds
2:55 PM 84.2 °F 82.8 °F 53.6 °F 35% 30.04 in 12.0 mi Variable 4.6 mph - N/A   Partly Cloudy
3:15 PM 84.2 °F 82.8 °F 53.6 °F 35% 30.04 in 9.0 mi NE 8.1 mph - N/A   Clear
3:35 PM 84.2 °F 82.8 °F 53.6 °F 35% 30.03 in 10.0 mi NNE 5.8 mph - N/A   Clear
3:55 PM 84.2 °F 82.8 °F 53.6 °F 35% 30.03 in 10.0 mi NE 6.9 mph - N/A   Clear
4:15 PM 84.2 °F 82.8 °F 53.6 °F 35% 30.03 in 10.0 mi NNE 8.1 mph - N/A   Clear
4:35 PM 84.2 °F 82.8 °F 53.6 °F 35% 30.03 in 10.0 mi ENE 8.1 mph - N/A   Clear
4:55 PM 84.2 °F - 51.8 °F 33% 30.03 in 10.0 mi NNE 6.9 mph - N/A   Clear
5:15 PM 84.2 °F - 51.8 °F 33% 30.03 in 10.0 mi ENE 3.5 mph - N/A   Clear
5:35 PM 82.4 °F - 51.8 °F 35% 30.03 in 10.0 mi East 4.6 mph - N/A   Clear
5:55 PM 82.4 °F 81.4 °F 53.6 °F 37% 30.04 in 10.0 mi ENE 3.5 mph - N/A   Clear
6:15 PM 82.4 °F 81.4 °F 53.6 °F 37% 30.04 in 10.0 mi Calm Calm - N/A   Clear
6:35 PM 80.6 °F 80.5 °F 55.4 °F 42% 30.04 in 10.0 mi Calm Calm - N/A   Clear
6:55 PM 75.2 °F - 57.2 °F 53% 30.05 in 10.0 mi Calm Calm - N/A   Clear
7:15 PM 73.4 °F - 57.2 °F 57% 30.05 in 10.0 mi Calm Calm - N/A   Clear
7:35 PM 75.2 °F - 55.4 °F 50% 30.06 in 10.0 mi Calm Calm - N/A   Clear
7:55 PM 69.8 °F - 59.0 °F 68% 30.07 in 10.0 mi Calm Calm - N/A   Clear
8:15 PM 71.6 °F - 59.0 °F 64% 30.08 in 10.0 mi ENE 6.9 mph - N/A   Clear
8:35 PM 73.4 °F - 59.0 °F 61% 30.08 in 10.0 mi ENE 5.8 mph - N/A   Clear
8:55 PM 73.4 °F - 60.8 °F 65% 30.09 in 10.0 mi ENE 6.9 mph - N/A   Clear
9:15 PM 73.4 °F - 62.6 °F 69% 30.10 in 10.0 mi East 8.1 mph - N/A   Clear
9:35 PM 71.6 °F - 62.6 °F 73% 30.10 in 10.0 mi ENE 6.9 mph - N/A   Clear
9:55 PM 71.6 °F - 62.6 °F 73% 30.11 in 10.0 mi ENE 5.8 mph - N/A   Clear
10:15 PM 71.6 °F - 60.8 °F 69% 30.12 in 10.0 mi ENE 4.6 mph - N/A   Clear
10:35 PM 69.8 °F - 60.8 °F 73% 30.12 in 10.0 mi ENE 5.8 mph - N/A   Clear
10:55 PM 69.8 °F - 60.8 °F 73% 30.13 in 10.0 mi ENE 5.8 mph - N/A   Clear
11:15 PM 69.8 °F - 60.8 °F 73% 30.13 in 10.0 mi ENE 4.6 mph - N/A   Clear
11:35 PM 68.0 °F - 60.8 °F 78% 30.13 in 10.0 mi ENE 5.8 mph - N/A   Clear
11:55 PM 68.0 °F - 60.8 °F 78% 30.13 in 10.0 mi NE 4.6 mph - N/A   Clear